TimeCST,TemperatureF,Dew PointF,Humidity,Sea Level PressureIn,VisibilityMPH,Wind Direction,Wind SpeedMPH,Gust SpeedMPH,PrecipitationIn,Events,Conditions,WindDirDegrees,DateUTC
12:52 AM,35.1,30.9,85,30.50,6.0,North,9.2,-,N/A,,Overcast,360,2011-12-10 06:52:00
1:39 AM,33.8,30.2,87,30.49,6.0,North,10.4,-,N/A,,Overcast,10,2011-12-10 07:39:00
1:52 AM,34.0,30.9,89,30.50,6.0,North,12.7,-,N/A,,Overcast,10,2011-12-10 07:52:00
2:52 AM,33.1,30.0,89,30.50,5.0,North,12.7,-,N/A,,Overcast,10,2011-12-10 08:52:00
3:52 AM,33.1,30.9,92,30.51,4.0,North,5.8,-,N/A,,Overcast,10,2011-12-10 09:52:00
4:52 AM,33.1,30.9,92,30.51,4.0,North,5.8,-,N/A,,Overcast,10,2011-12-10 10:52:00
5:52 AM,33.1,30.9,92,30.51,5.0,North,9.2,-,N/A,,Overcast,360,2011-12-10 11:52:00
6:52 AM,33.1,30.9,92,30.53,5.0,NNE,8.1,-,N/A,,Overcast,20,2011-12-10 12:52:00
7:52 AM,32.0,30.0,92,30.55,2.0,NNE,6.9,-,N/A,,Overcast,20,2011-12-10 13:52:00
8:52 AM,33.1,30.9,92,30.57,2.0,North,4.6,-,N/A,,Overcast,10,2011-12-10 14:52:00
9:52 AM,33.1,30.9,92,30.58,2.0,North,5.8,-,N/A,,Overcast,360,2011-12-10 15:52:00
10:52 AM,34.0,30.9,89,30.58,2.0,North,4.6,-,N/A,,Overcast,360,2011-12-10 16:52:00
11:04 AM,35.6,30.2,81,30.55,5.0,North,6.9,-,N/A,,Overcast,10,2011-12-10 17:04:00
11:23 AM,35.6,30.2,81,30.55,5.0,North,6.9,-,N/A,,Overcast,360,2011-12-10 17:23:00
11:35 AM,35.6,30.2,81,30.54,5.0,North,6.9,-,N/A,,Overcast,360,2011-12-10 17:35:00
11:52 AM,35.1,30.9,85,30.56,6.0,North,5.8,-,N/A,,Overcast,10,2011-12-10 17:52:00
11:59 AM,35.6,30.2,81,30.53,6.0,NNE,4.6,-,N/A,,Haze,20,2011-12-10 17:59:00
12:08 PM,35.6,30.2,81,30.53,6.0,North,6.9,-,N/A,,Haze,10,2011-12-10 18:08:00
12:52 PM,37.0,32.0,82,30.53,6.0,North,4.6,-,N/A,,Haze,360,2011-12-10 18:52:00
1:52 PM,37.9,32.0,79,30.49,6.0,NE,4.6,-,N/A,,Haze,40,2011-12-10 19:52:00
2:52 PM,39.0,32.0,76,30.48,6.0,Calm,Calm,-,N/A,,Haze,0,2011-12-10 20:52:00
2:59 PM,39.2,32.0,75,30.45,7.0,Calm,Calm,-,N/A,,Overcast,0,2011-12-10 20:59:00
3:45 PM,39.2,33.8,81,30.44,6.0,Calm,Calm,-,N/A,,Haze,0,2011-12-10 21:45:00
3:52 PM,39.0,33.1,79,30.46,6.0,North,4.6,-,N/A,,Haze,10,2011-12-10 21:52:00
4:52 PM,39.0,33.1,79,30.45,7.0,Calm,Calm,-,N/A,,Haze,0,2011-12-10 22:52:00
5:52 PM,39.0,33.1,79,30.46,8.0,Calm,Calm,-,N/A,,Overcast,0,2011-12-10 23:52:00
6:13 PM,39.2,33.8,81,30.43,8.0,Calm,Calm,-,N/A,,Overcast,0,2011-12-11 00:13:00
6:52 PM,39.0,33.1,79,30.45,8.0,NNE,3.5,-,N/A,,Overcast,20,2011-12-11 00:52:00
7:52 PM,39.0,33.1,79,30.47,9.0,NNE,3.5,-,N/A,,Overcast,30,2011-12-11 01:52:00
8:52 PM,39.0,34.0,82,30.48,8.0,East,4.6,-,N/A,,Overcast,80,2011-12-11 02:52:00
9:52 PM,39.0,35.1,86,30.48,7.0,SE,4.6,-,N/A,,Overcast,140,2011-12-11 03:52:00
10:52 PM,37.9,36.0,93,30.49,6.0,Calm,Calm,-,0.00,Rain,Light Rain,0,2011-12-11 04:52:00
11:52 PM,37.9,35.1,89,30.46,6.0,SE,4.6,-,0.00,,Overcast,130,2011-12-11 05:52:00